FW1892 Weather Reports


Display with metric or nautical units.
time (UTC)temp
F
wind
direction
speed
MPH
gust
MPH
rain 1hr
in
rain 24hr
in
rain mn
in
humidity
%
barometer
mb
20260507201101 64 269 4.0 11.0 0.00 0.00 0.00 30 1004.0
20260507200557 64 276 2.0 9.0 0.00 0.00 0.00 29 1004.1
20260507200053 63 70 4.0 8.0 0.00 0.00 0.00 29 1004.1
20260507195550 64 125 3.0 8.0 0.00 0.00 0.00 30 1004.2
20260507195048 63 321 4.0 4.0 0.00 0.00 0.00 33 1004.2
20260507194544 62 46 2.0 6.0 0.00 0.00 0.00 29 1004.3
20260507194040 63 203 2.0 7.0 0.00 0.00 0.00 28 1004.2
20260507193537 62 219 6.0 13.0 0.00 0.00 0.00 30 1004.3
20260507193034 62 176 4.0 7.0 0.00 0.00 0.00 30 1004.3
20260507192530 62 289 6.0 8.0 0.00 0.00 0.00 29 1004.2
20260507192027 62 60 5.0 8.0 0.00 0.00 0.00 29 1004.3
20260507191522 62 331 3.0 13.0 0.00 0.00 0.00 28 1004.4
20260507191020 62 186 1.0 6.0 0.00 0.00 0.00 28 1004.4
20260507190517 62 343 3.0 6.0 0.00 0.00 0.00 30 1004.5
20260507190016 62 238 5.0 15.0 0.00 0.00 0.00 29 1004.7
20260507185514 63 129 9.0 13.0 0.00 0.00 0.00 27 1004.6
20260507185010 62 307 4.0 18.0 0.00 0.00 0.00 30 1004.9
20260507184508 62 283 6.0 8.0 0.00 0.00 0.00 30 1004.6
20260507184006 62 211 4.0 14.0 0.00 0.00 0.00 30 1005.2
20260507183501 62 249 4.0 7.0 0.00 0.00 0.00 31 1005.0
20260507182959 62 330 5.0 10.0 0.00 0.00 0.00 30 1004.8
20260507182455 62 213 5.0 7.0 0.00 0.00 0.00 32 1005.0
20260507181951 62 311 8.0 11.0 0.00 0.00 0.00 31 1005.0
20260507181448 61 235 5.0 7.0 0.00 0.00 0.00 34 1005.0
20260507180944 60 275 7.0 10.0 0.00 0.00 0.00 33 1005.1
20260507180441 60 278 7.0 11.0 0.00 0.00 0.00 34 1004.9
20260507175937 60 310 4.0 6.0 0.00 0.00 0.00 33 1005.1
20260507175434 60 243 4.0 7.0 0.00 0.00 0.00 34 1005.1
20260507174932 59 269 3.0 9.0 0.00 0.00 0.00 35 1005.0
20260507174428 58 285 4.0 7.0 0.00 0.00 0.00 35 1005.2
20260507173926 60 250 3.0 7.0 0.00 0.00 0.00 34 1005.1
20260507173423 60 319 5.0 8.0 0.00 0.00 0.00 36 1005.0
20260507172919 62 296 3.0 9.0 0.00 0.00 0.00 35 1005.0
20260507172416 61 87 1.0 2.0 0.00 0.00 0.00 36 1005.0
20260507171912 60 61 3.0 6.0 0.00 0.00 0.00 36 1005.1
20260507171409 61 275 5.0 10.0 0.00 0.00 0.00 33 1005.1
20260507170906 61 346 7.0 13.0 0.00 0.00 0.00 35 1005.1
20260507170402 61 272 7.0 11.0 0.00 0.00 0.00 35 1005.2
20260507165859 60 97 3.0 9.0 0.00 0.00 0.00 35 1005.2
20260507165354 60 258 8.0 11.0 0.00 0.00 0.00 36 1005.3
20260507164851 60 270 5.0 8.0 0.00 0.00 0.00 36 1005.6
20260507164348 60 343 7.0 10.0 0.00 0.00 0.00 35 1005.6
20260507163845 60 296 7.0 9.0 0.00 0.00 0.00 36 1005.5
20260507163342 60 237 5.0 13.0 0.00 0.00 0.00 36 1005.6
20260507162839 60 262 7.0 11.0 0.00 0.00 0.00 36 1005.5
20260507162334 60 327 8.0 10.0 0.00 0.00 0.00 35 1005.6
20260507161832 60 247 8.0 13.0 0.00 0.00 0.00 36 1005.6
20260507161328 59 255 5.0 8.0 0.00 0.00 0.00 38 1005.9
20260507160825 58 344 6.0 10.0 0.00 0.00 0.00 35 1005.9
20260507160321 59 261 5.0 7.0 0.00 0.00 0.00 38 1005.9
20260507155817 60 304 4.0 8.0 0.00 0.00 0.00 37 1005.7
20260507155313 60 301 7.0 9.0 0.00 0.00 0.00 38 1005.7
20260507154809 59 266 7.0 10.0 0.00 0.00 0.00 38 1005.9
20260507154307 59 288 4.0 11.0 0.00 0.00 0.00 39 1005.9
20260507153804 59 300 3.0 8.0 0.00 0.00 0.00 42 1006.0
20260507153300 59 237 6.0 8.0 0.00 0.00 0.00 43 1006.0
20260507152757 58 96 1.0 9.0 0.00 0.00 0.00 45 1006.2
20260507152253 59 291 7.0 9.0 0.00 0.00 0.00 47 1006.3
20260507151749 59 221 3.0 8.0 0.00 0.00 0.00 50 1006.2
20260507151245 58 186 2.0 4.0 0.00 0.00 0.00 50 1006.2
20260507150742 57 207 1.0 4.0 0.00 0.00 0.00 52 1006.2
20260507150239 58 151 8.0 10.0 0.00 0.00 0.00 51 1006.4
20260507145735 57 165 2.0 3.0 0.00 0.00 0.00 55 1006.2
20260507145232 56 264 4.0 7.0 0.00 0.00 0.00 56 1006.4
20260507144729 57 195 2.0 6.0 0.00 0.00 0.00 56 1006.3
20260507144227 57 122 3.0 4.0 0.00 0.00 0.00 57 1006.3
20260507143723 59 177 1.0 6.0 0.00 0.00 0.00 55 1006.2
20260507143220 58 197 4.0 6.0 0.00 0.00 0.00 55 1006.3
20260507142716 57 198 2.0 4.0 0.00 0.00 0.00 56 1006.2
20260507142213 56 213 1.0 4.0 0.00 0.00 0.00 59 1006.0
20260507141709 55 13 5.0 7.0 0.00 0.00 0.00 57 1006.4
20260507141206 56 270 2.0 9.0 0.00 0.00 0.00 58 1006.3
20260507140702 56 245 3.0 7.0 0.00 0.00 0.00 56 1006.3
20260507140200 55 141 2.0 3.0 0.00 0.00 0.00 57 1006.3
20260507135657 55 172 4.0 7.0 0.00 0.00 0.00 58 1006.3
20260507135154 55 211 4.0 8.0 0.00 0.00 0.00 61 1006.3
20260507134650 55 271 4.0 8.0 0.00 0.00 0.00 58 1006.2
20260507134147 56 247 3.0 3.0 0.00 0.00 0.00 58 1006.1
20260507133643 56 357 2.0 8.0 0.00 0.00 0.00 56 1006.2
20260507133140 55 334 3.0 8.0 0.00 0.00 0.00 56 1006.4
20260507132637 55 287 6.0 9.0 0.00 0.00 0.00 57 1006.5
20260507132133 56 214 1.0 7.0 0.00 0.00 0.00 59 1006.5
20260507131630 56 252 3.0 4.0 0.00 0.00 0.00 60 1006.4
20260507131128 55 101 0.0 2.0 0.00 0.00 0.00 60 1006.8
20260507130624 55 66 2.0 3.0 0.00 0.00 0.00 59 1006.8
20260507130122 55 358 2.0 4.0 0.00 0.00 0.00 62 1006.6
20260507125621 55 298 2.0 6.0 0.00 0.00 0.00 63 1006.5
20260507125118 54 275 4.0 6.0 0.00 0.00 0.00 65 1006.6
20260507124614 54 319 2.0 3.0 0.00 0.00 0.00 65 1006.6
20260507124112 53 55 0.0 2.0 0.00 0.00 0.00 66 1006.3
20260507123610 53 60 2.0 6.0 0.00 0.00 0.00 67 1006.6
20260507123107 53 59 1.0 7.0 0.00 0.00 0.00 67 1006.6
20260507122602 53 134 0.0 4.0 0.00 0.00 0.00 67 1006.5
20260507122058 53 302 4.0 6.0 0.00 0.00 0.00 66 1006.8
20260507121554 52 308 1.0 3.0 0.00 0.00 0.00 69 1006.7
20260507121050 52 65 2.0 3.0 0.00 0.00 0.00 70 1006.9
20260507120546 51 140 1.0 4.0 0.00 0.00 0.00 71 1006.9
20260507120043 51 32 3.0 6.0 0.00 0.00 0.00 72 1007.1
20260507115539 51 70 0.0 6.0 0.00 0.00 0.00 73 1007.0
20260507115035 51 290 4.0 6.0 0.00 0.00 0.00 75 1006.9
20260507114531 50 259 3.0 3.0 0.00 0.00 0.00 75 1006.8
20260507114029 50 43 2.0 2.0 0.00 0.00 0.00 76 1006.5
20260507113526 50 35 2.0 3.0 0.00 0.00 0.00 75 1006.3
20260507113023 50 129 0.0 0.0 0.00 0.00 0.00 79 1006.8
20260507112521 49 120 0.0 0.0 0.00 0.00 0.00 81 1006.8
20260507112017 48 99 0.0 1.0 0.00 0.00 0.00 83 1006.7
20260507111514 48 125 0.0 1.0 0.00 0.00 0.00 83 1006.8
20260507111011 47 129 1.0 1.0 0.00 0.00 0.00 83 1006.8
20260507110508 47 160 0.0 0.0 0.00 0.00 0.00 83 1006.5
20260507110004 47 1 1.0 2.0 0.00 0.00 0.00 83 1006.5
20260507105500 47 125 1.0 2.0 0.00 0.00 0.00 83 1006.3
20260507104957 47 127 0.0 2.0 0.00 0.00 0.00 83 1006.3
20260507104454 47 29 1.0 1.0 0.00 0.00 0.00 82 1006.3
20260507103950 47 238 0.0 0.0 0.00 0.00 0.00 83 1006.4
20260507103447 47 172 0.0 1.0 0.00 0.00 0.00 84 1006.3
20260507102943 47 193 0.0 2.0 0.00 0.00 0.00 84 1006.3
20260507102440 47 162 0.0 0.0 0.00 0.00 0.00 84 1006.3
20260507101936 47 88 0.0 1.0 0.00 0.00 0.00 84 1006.1
20260507101431 47 152 0.0 0.0 0.00 0.00 0.00 84 1006.2
20260507100928 47 177 0.0 1.0 0.00 0.00 0.00 85 1006.3
20260507100426 47 96 0.0 1.0 0.00 0.00 0.00 84 1005.7
20260507095924 47 116 1.0 1.0 0.00 0.00 0.00 84 1005.7
20260507095421 47 147 0.0 3.0 0.00 0.00 0.00 84 1006.3
20260507094918 47 66 1.0 1.0 0.00 0.00 0.00 84 1006.3
20260507094414 47 169 1.0 3.0 0.00 0.00 0.00 84 1006.3
20260507093911 48 248 1.0 3.0 0.00 0.00 0.00 84 1006.1
20260507093409 48 294 4.0 4.0 0.00 0.00 0.00 84 1006.2
20260507092907 48 295 2.0 3.0 0.00 0.00 0.00 84 1006.2
20260507092403 48 139 0.0 1.0 0.00 0.00 0.00 83 1006.4
20260507091900 48 345 3.0 4.0 0.00 0.00 0.00 82 1006.1
20260507091356 48 298 1.0 2.0 0.00 0.00 0.00 82 1006.4
20260507090852 48 220 1.0 2.0 0.00 0.00 0.00 82 1006.5
20260507090348 48 255 2.0 3.0 0.00 0.00 0.00 81 1006.5
20260507085845 48 172 1.0 2.0 0.00 0.00 0.00 80 1006.5
20260507085342 48 153 0.0 1.0 0.00 0.00 0.00 80 1006.4
20260507084840 48 122 0.0 0.0 0.00 0.00 0.00 80 1006.2
20260507084335 48 32 1.0 4.0 0.00 0.00 0.00 79 1006.1
20260507083833 48 233 2.0 4.0 0.00 0.00 0.00 81 1006.1
20260507083330 48 170 2.0 2.0 0.00 0.00 0.00 82 1006.1
20260507082826 48 170 1.0 2.0 0.00 0.00 0.00 82 1005.9
20260507082321 48 144 0.0 2.0 0.00 0.00 0.00 83 1006.0
20260507081819 48 315 2.0 3.0 0.00 0.00 0.00 82 1005.7
20260507081315 48 185 1.0 2.0 0.00 0.00 0.00 82 1005.6
20260507080812 48 317 1.0 2.0 0.00 0.00 0.00 82 1005.7
20260507080308 49 149 1.0 7.0 0.00 0.00 0.00 82 1005.5
20260507075803 49 133 1.0 3.0 0.00 0.00 0.00 81 1005.4
20260507075259 49 314 2.0 3.0 0.00 0.00 0.00 81 1006.0
20260507074756 49 249 2.0 4.0 0.00 0.00 0.00 81 1006.2
20260507074254 49 144 0.0 2.0 0.00 0.00 0.00 81 1006.1
20260507073751 49 204 0.0 3.0 0.00 0.00 0.00 80 1005.9
20260507073247 49 328 3.0 4.0 0.00 0.00 0.00 80 1005.7
20260507072745 49 15 6.0 10.0 0.00 0.00 0.00 80 1005.9
20260507072242 49 241 0.0 2.0 0.00 0.00 0.00 81 1005.3
20260507071740 49 164 1.0 6.0 0.00 0.00 0.00 80 1005.3
20260507071236 49 301 3.0 8.0 0.00 0.00 0.00 81 1005.2
20260507070733 49 215 1.0 4.0 0.00 0.00 0.00 82 1005.5
20260507070230 49 214 1.0 2.0 0.00 0.00 0.00 83 1005.4
20260507065726 49 349 2.0 2.0 0.00 0.00 0.00 84 1005.4
20260507065223 49 345 2.0 8.0 0.00 0.00 0.00 85 1005.4
20260507064720 49 203 2.0 9.0 0.00 0.00 0.00 86 1005.2
20260507064220 49 306 4.0 6.0 0.00 0.00 0.00 87 1005.2
20260507063716 49 197 1.0 2.0 0.00 0.00 0.00 87 1005.4
20260507063213 49 85 0.0 2.0 0.00 0.00 0.00 87 1005.3
20260507062710 49 107 0.0 0.0 0.00 0.00 0.00 86 1005.1
20260507062208 50 84 1.0 2.0 0.00 0.00 0.00 86 1005.3
20260507061705 50 18 0.0 1.0 0.00 0.00 0.00 86 1005.4
20260507061203 50 212 1.0 3.0 0.00 0.00 0.00 85 1005.6
20260507060701 50 326 1.0 2.0 0.00 0.00 0.00 85 1005.3
20260507060157 50 308 1.0 2.0 0.00 0.00 0.00 85 1005.4
20260507055653 50 357 1.0 1.0 0.00 0.00 0.00 85 1005.5
20260507055149 50 149 0.0 2.0 0.00 0.00 0.00 85 1005.7
20260507054645 50 341 2.0 3.0 0.00 0.00 0.00 85 1006.1
20260507054142 50 327 2.0 3.0 0.00 0.00 0.00 85 1005.6
20260507053640 50 251 1.0 4.0 0.00 0.00 0.00 85 1005.4
20260507053138 50 264 3.0 7.0 0.00 0.00 0.00 85 1005.4
20260507052636 50 294 3.0 4.0 0.00 0.00 0.00 86 1005.5
20260507052132 50 259 3.0 3.0 0.00 0.00 0.00 86 1005.9
20260507051630 50 183 1.0 4.0 0.00 0.00 0.00 86 1005.7
20260507051126 50 307 4.0 7.0 0.00 0.00 0.00 87 1005.7
20260507050623 50 295 3.0 6.0 0.00 0.00 0.00 87 1005.9
20260507050120 50 298 2.0 3.0 0.00 0.00 0.00 87 1005.4
20260507045617 50 240 2.0 3.0 0.00 0.00 0.00 87 1005.2
20260507045114 50 199 4.0 7.0 0.00 0.00 0.00 86 1005.3
20260507044610 50 319 3.0 4.0 0.00 0.00 0.00 87 1005.3
20260507044108 51 252 3.0 4.0 0.00 0.00 0.00 88 1005.6
20260507043603 51 109 0.0 2.0 0.00 0.00 0.00 88 1005.4
20260507043100 51 269 6.0 8.0 0.00 0.00 0.00 88 1005.7
20260507042556 51 70 1.0 3.0 0.00 0.00 0.00 89 1005.9
20260507042052 51 312 2.0 7.0 0.00 0.00 0.00 90 1006.0
20260507041549 51 107 1.0 2.0 0.00 0.00 0.00 90 1005.7
20260507041046 51 141 0.0 1.0 0.00 0.00 0.00 90 1005.6
20260507040542 51 271 3.0 4.0 0.00 0.00 0.00 90 1005.3
20260507040039 51 266 3.0 4.0 0.00 0.20 0.20 90 1005.5
20260507035535 52 76 1.0 3.0 0.00 0.20 0.20 90 1005.4
20260507035031 52 242 3.0 4.0 0.00 0.20 0.20 90 1005.4
20260507034528 52 117 0.0 2.0 0.00 0.20 0.20 90 1005.5
20260507034026 52 69 1.0 4.0 0.00 0.20 0.20 91 1005.2
20260507033524 52 282 3.0 4.0 0.00 0.20 0.20 91 1005.2
20260507033021 53 330 3.0 6.0 0.00 0.20 0.20 92 1005.3
20260507032518 53 323 4.0 6.0 0.00 0.20 0.20 92 1005.2
20260507032014 53 38 1.0 2.0 0.00 0.20 0.20 92 1005.2
20260507031510 54 126 1.0 3.0 0.00 0.20 0.20 92 1005.1
20260507031008 54 307 2.0 4.0 0.05 0.20 0.20 91 1004.8
20260507030504 55 273 4.0 7.0 0.05 0.20 0.20 91 1004.7
20260507030002 56 274 9.0 10.0 0.07 0.19 0.19 91 1005.0
20260507025458 56 45 1.0 4.0 0.00 0.18 0.18 91 1004.9
20260507024956 56 324 3.0 3.0 0.00 0.18 0.18 92 1005.1
20260507024453 57 304 6.0 9.0 0.00 0.18 0.18 92 1005.1
20260507023949 57 75 1.0 4.0 0.05 0.18 0.18 93 1004.7
20260507023446 57 302 5.0 7.0 0.05 0.18 0.18 93 1004.6
20260507022943 58 10 2.0 4.0 0.00 0.17 0.17 94 1004.5
20260507022441 58 295 3.0 4.0 0.00 0.17 0.17 94 1004.4
20260507021936 59 66 1.0 2.0 0.00 0.17 0.17 94 1004.1
20260507021431 59 302 2.0 3.0 0.00 0.17 0.17 95 1003.9
20260507020929 59 337 2.0 3.0 0.00 0.17 0.17 95 1004.0
20260507020426 59 260 2.0 4.0 0.00 0.17 0.17 95 1004.0
20260507015923 59 145 2.0 4.0 0.00 0.17 0.17 94 1003.7
20260507015421 59 112 0.0 2.0 0.00 0.17 0.17 94 1003.9
20260507014918 59 155 0.0 1.0 0.00 0.17 0.17 94 1003.7
20260507014414 59 164 1.0 3.0 0.00 0.17 0.17 94 1003.6
20260507013910 59 199 1.0 3.0 0.00 0.17 0.17 94 1003.7
20260507013408 59 43 2.0 3.0 0.00 0.17 0.17 94 1003.8
20260507012905 59 99 2.0 3.0 0.00 0.17 0.17 94 1003.6
20260507012401 59 207 0.0 2.0 0.00 0.17 0.17 94 1003.9
20260507011859 59 213 1.0 3.0 0.00 0.17 0.17 94 1003.6
20260507011355 59 164 0.0 1.0 0.00 0.17 0.17 94 1003.8
20260507010855 59 186 1.0 3.0 0.00 0.17 0.17 94 1003.6
20260507010351 59 172 0.0 1.0 0.00 0.17 0.17 94 1003.8
20260507005848 59 134 0.0 2.0 0.00 0.17 0.17 94 1003.7
20260507005345 59 188 1.0 2.0 0.00 0.17 0.17 94 1003.8
20260507004842 59 194 3.0 4.0 0.00 0.17 0.17 94 1003.7
20260507004339 59 116 1.0 2.0 0.00 0.17 0.17 94 1003.7
20260507003836 59 141 0.0 1.0 0.00 0.17 0.17 94 1003.5
20260507003331 59 77 2.0 3.0 0.00 0.17 0.17 94 1003.5
20260507002826 59 124 0.0 1.0 0.00 0.17 0.17 94 1003.6
20260507002323 59 181 1.0 3.0 0.00 0.17 0.17 94 1003.6
20260507001820 59 225 1.0 3.0 0.00 0.17 0.17 94 1003.5
20260507001317 59 120 0.0 2.0 0.00 0.17 0.17 94 1003.5
20260507000813 59 59 1.0 1.0 0.00 0.17 0.17 94 1003.3
20260507000309 59 153 4.0 6.0 0.00 0.17 0.17 94 1003.2
20260506235806 59 210 4.0 7.0 0.00 0.17 0.17 94 1003.2
20260506235306 59 129 0.0 6.0 0.00 0.17 0.17 94 1002.9
20260506234759 59 144 1.0 6.0 0.00 0.17 0.17 94 1003.2
20260506234256 59 170 3.0 3.0 0.00 0.17 0.17 94 1003.3
20260506233754 59 218 3.0 4.0 0.00 0.17 0.17 94 1003.2
20260506233250 60 187 1.0 6.0 0.00 0.17 0.17 94 1003.2
20260506232747 59 162 3.0 4.0 0.00 0.17 0.17 94 1003.3
20260506232241 60 203 4.0 7.0 0.00 0.17 0.17 93 1003.4
20260506231739 60 234 6.0 8.0 0.00 0.17 0.17 93 1003.4
20260506231238 60 143 1.0 3.0 0.00 0.17 0.17 93 1003.3
20260506230734 60 173 0.0 4.0 0.00 0.17 0.17 93 1003.3
20260506230231 60 133 1.0 2.0 0.00 0.17 0.17 93 1003.4
20260506225727 60 157 1.0 3.0 0.00 0.17 0.17 93 1003.5
20260506225225 60 218 2.0 3.0 0.00 0.17 0.17 93 1003.7
20260506224721 60 166 1.0 4.0 0.00 0.17 0.17 93 1003.5
20260506224218 60 173 1.0 6.0 0.00 0.17 0.17 93 1003.4
20260506223714 60 142 0.0 4.0 0.00 0.17 0.17 93 1003.7
20260506223210 60 169 1.0 6.0 0.00 0.17 0.17 93 1003.5
20260506222707 60 217 1.0 3.0 0.00 0.17 0.17 93 1003.5
20260506222202 60 170 4.0 7.0 0.00 0.17 0.17 93 1003.6
20260506221701 60 48 2.0 6.0 0.00 0.17 0.17 93 1003.6
20260506221159 60 116 2.0 4.0 0.00 0.17 0.17 93 1003.7
20260506220655 60 115 1.0 7.0 0.00 0.17 0.17 93 1003.9
20260506220150 60 188 3.0 4.0 0.00 0.17 0.17 94 1003.8
20260506215647 60 118 2.0 6.0 0.07 0.17 0.17 93 1003.8
20260506215142 60 176 3.0 4.0 0.07 0.17 0.17 93 1003.7
20260506214639 60 115 1.0 4.0 0.00 0.16 0.16 93 1003.9
20260506214137 60 150 2.0 3.0 0.00 0.16 0.16 93 1003.9
20260506213635 60 125 4.0 9.0 0.00 0.16 0.16 93 1003.8
20260506213132 60 202 6.0 7.0 0.00 0.16 0.16 93 1003.9
20260506212629 60 94 2.0 3.0 0.00 0.16 0.16 93 1003.9
20260506212124 60 194 2.0 6.0 0.05 0.16 0.16 92 1003.8
20260506211620 60 82 2.0 7.0 0.05 0.16 0.16 92 1003.9
20260506211117 60 156 2.0 4.0 0.07 0.15 0.15 92 1004.1
20260506210614 61 209 2.0 10.0 0.07 0.15 0.15 92 1004.0
20260506210110 61 202 5.0 10.0 0.00 0.14 0.14 92 1004.2
20260506205607 61 65 1.0 3.0 0.00 0.14 0.14 92 1004.1
20260506205102 61 170 5.0 7.0 0.00 0.14 0.14 92 1004.2
20260506204600 61 176 2.0 6.0 0.00 0.14 0.14 92 1004.1
20260506204057 61 216 1.0 8.0 0.05 0.14 0.14 91 1004.4
20260506203555 61 129 0.0 4.0 0.05 0.14 0.14 91 1004.3
20260506203051 61 93 3.0 6.0 0.00 0.13 0.13 91 1004.2
20260506202549 62 198 4.0 6.0 0.00 0.13 0.13 91 1004.3
20260506202045 62 130 2.0 2.0 0.00 0.13 0.13 92 1004.3
20260506201543 62 187 2.0 4.0 0.00 0.13 0.13 91 1004.2